Погода в Цибулеве

Украина / Черкасская область     49°04′24″N   29°50′49″E
темп.,
°C
ветер,
м/с
пор.,
м/с
влажн.,
%
обл.,
%
осадки,
мм/ч
давл.,
гПа
погр.,
м
19 января, ср
ср1923:00−5ссз91574100 0.0 1024993
02:00−6ссз814785 0.0 1026726
05:00−7ссз714855 0.0 1026552
08:00−6сз51285100 0.0 1027456
11:00−4сз5969100 0.0 1027478
14:00−2сз5873100 0.0 1025595
17:00−3з359255 0.0 1024105
20:00−5зюз37966 0.0 1023155
20 января, чт
чт2023:00−5юз37968 0.0 1021134
02:00−4юз3793100 0.0 1019187
05:00−4юз3893100 0.0 1016173
08:00−4ююз4128198 0.0 1015230
11:00−1ююз5106132 0.0 1013396
14:00+1юз456045 0.0 1010347
17:00−2юз3879100 0.0 1009135
20:00−2зюз41197100 0.2 1008425
21 января, пт
пт2123:00−2зюз41096100 0.2 1007330
02:00−3зсз71377100 0.3 1009789
05:00−5з7148076 0.0 1009754
08:00−5з81581100 0.0 1010890
11:00−3з91474100 0.0 10111128
14:00−3з91572100 0.1 10101108
17:00−4з81484100 0.0 1010956
20:00−3з81381100 0.1 10101047
22 января, сб
сб2223:00−4зюз71383100 0.0 1011795
02:00−5зюз71491100 0.1 1010814
05:00−4з71385100 0.2 1009800
08:00−5з61289100 0.3 1010707
11:00−3з7977100 0.1 1011921
14:00−2з6867100 0.4 10101233
17:00−4з598381 0.1 1012300
20:00−6зюз389597 0.1 1014227
23 января, вс
вс2323:00−6з369774 0.0 1015142
02:00−7сз369790 0.1 1017170
05:00−7ссз379666 0.1 1018222
08:00−8с379583 0.1 1020246
11:00−6ссв4683100 0.1 1023500
14:00−4ссв5675100 0.1 1023886
17:00−6ссв4893100 0.1 1025344
20:00−6ссв4893100 0.2 1027470